FW9989 Weather Reports


time (UTC)temp
C
wind
direction
speed
KPH
gust
KPH
rain 1hr
cm
rain 24hr
cm
rain mn
cm
humidity
%
barometer
mb
20260502160557 13 315 3.2 9.7 0.00 0.00 0.00 79 1016.2
20260502152011 13 5 4.8 12.9 0.00 0.00 0.00 78 1016.2
20260502151507 13 338 6.4 9.7 0.00 0.00 0.00 79 1015.9
20260502151004 13 98 0.0 4.8 0.00 0.00 0.00 79 1015.9
20260502150502 13 36 4.8 9.7 0.00 0.00 0.00 79 1016.2
20260502130347 12 311 0.0 0.0 0.00 0.00 0.00 86 1014.9
20260502123329 12 346 6.4 11.3 0.00 0.00 0.00 88 1014.9
20260502122826 12 350 6.4 9.7 0.00 0.00 0.00 89 1014.6
20260502122322 12 1 0.0 0.0 0.00 0.00 0.00 88 1014.6
20260502121821 11 18 0.0 1.6 0.00 0.00 0.00 88 1014.6
20260502121318 12 4 0.0 0.0 0.00 0.00 0.00 89 1014.9
20260502120815 11 42 4.8 9.7 0.00 0.00 0.00 89 1014.9
20260502120311 11 349 0.0 0.0 0.00 0.00 0.00 90 1015.2
20260502115809 11 215 0.0 0.0 0.00 0.00 0.00 89 1014.9
20260502115306 11 196 0.0 0.0 0.00 0.00 0.00 89 1014.9
20260502114802 11 280 0.0 0.0 0.00 0.00 0.00 89 1014.9
20260502114259 12 184 0.0 0.0 0.00 0.00 0.00 89 1014.9
20260502113756 11 343 1.6 3.2 0.00 0.00 0.00 89 1015.2
20260502113254 11 12 8.0 9.7 0.00 0.00 0.00 89 1015.2
20260502112752 12 1 4.8 8.0 0.00 0.00 0.00 89 1015.2
20260502112249 12 14 3.2 4.8 0.00 0.00 0.00 89 1015.2
20260502111746 12 2 3.2 8.0 0.00 0.00 0.00 89 1015.2
20260502111243 12 341 0.0 8.0 0.00 0.00 0.00 89 1015.2
20260502110740 11 6 0.0 0.0 0.00 0.00 0.00 88 1015.2
20260502110238 12 226 0.0 8.0 0.00 0.00 0.00 89 1014.9
20260502105736 12 12 0.0 0.0 0.00 0.00 0.00 90 1014.9
20260502105232 11 339 0.0 0.0 0.00 0.00 0.00 91 1014.9
20260502104730 11 253 0.0 0.0 0.00 0.00 0.00 91 1014.9
20260502104227 11 312 0.0 0.0 0.00 0.00 0.00 91 1014.9
20260502103725 11 289 0.0 0.0 0.00 0.00 0.00 91 1014.9
20260502103222 11 359 0.0 0.0 0.00 0.00 0.00 91 1014.9
20260502102719 11 249 0.0 0.0 0.00 0.00 0.00 91 1014.9
20260502102216 11 223 0.0 0.0 0.00 0.00 0.00 91 1014.9
20260502101714 11 291 0.0 0.0 0.00 0.00 0.00 92 1014.9
20260502101212 11 219 0.0 0.0 0.00 0.00 0.00 92 1014.9
20260502100710 11 299 0.0 0.0 0.00 0.00 0.00 92 1014.6
20260502100208 11 201 0.0 0.0 0.00 0.00 0.00 92 1014.6
20260502091142 11 290 0.0 0.0 0.00 0.00 0.00 92 1014.2
20260502090639 11 216 0.0 0.0 0.00 0.00 0.00 92 1014.2
20260502090136 11 238 0.0 0.0 0.00 0.00 0.00 92 1014.2
20260502071534 12 243 0.0 0.0 0.00 0.00 0.00 92 1013.9
20260502071032 11 239 0.0 0.0 0.00 0.00 0.00 92 1013.9
20260502070530 11 207 0.0 0.0 0.00 0.00 0.00 91 1013.9
20260502070028 11 213 0.0 0.0 0.00 0.00 0.00 91 1013.9
20260502065526 11 200 0.0 0.0 0.00 0.00 0.00 91 1014.2
20260502065023 11 193 0.0 0.0 0.00 0.00 0.00 91 1013.9
20260502064521 11 205 0.0 0.0 0.00 0.00 0.00 91 1013.9
20260502064018 11 234 0.0 0.0 0.00 0.00 0.00 91 1013.9
20260502063516 11 243 0.0 0.0 0.00 0.00 0.00 92 1014.2
20260502063014 11 239 0.0 0.0 0.00 0.00 0.00 93 1014.2
20260502062510 11 239 0.0 0.0 0.00 0.00 0.00 93 1013.9
20260502062009 11 237 0.0 0.0 0.00 0.00 0.00 93 1014.2
20260502061506 11 236 0.0 0.0 0.00 0.00 0.00 93 1014.2
20260502061003 11 233 0.0 0.0 0.00 0.00 0.00 93 1013.9
20260502060458 11 234 0.0 0.0 0.00 0.00 0.00 93 1014.2
20260502055955 11 237 0.0 0.0 0.00 0.00 0.00 93 1014.2
20260502055452 11 231 0.0 0.0 0.00 0.00 0.00 92 1014.2
20260502054946 11 232 0.0 0.0 0.00 0.00 0.00 92 1014.6
20260502054444 11 232 0.0 0.0 0.00 0.00 0.00 92 1014.2
20260502053941 11 231 0.0 0.0 0.00 0.00 0.00 92 1014.6
20260502053438 11 231 0.0 0.0 0.00 0.00 0.00 92 1014.6
20260502052936 11 231 0.0 0.0 0.00 0.00 0.00 92 1014.9
20260502052434 12 232 0.0 0.0 0.00 0.00 0.00 92 1014.9
20260502051932 12 232 0.0 0.0 0.00 0.00 0.00 92 1014.6
20260502051429 12 233 0.0 0.0 0.00 0.00 0.00 92 1014.9
20260502050926 12 221 0.0 0.0 0.00 0.00 0.00 91 1014.9
20260502050423 12 221 0.0 0.0 0.00 0.00 0.00 91 1014.9
20260502045920 11 198 0.0 0.0 0.00 0.00 0.00 91 1014.9
20260502045417 11 186 0.0 0.0 0.00 0.00 0.00 91 1014.9
20260502044914 11 189 0.0 0.0 0.00 0.00 0.00 91 1014.9
20260502044409 11 203 0.0 0.0 0.00 0.00 0.00 91 1014.9
20260502043907 11 230 0.0 0.0 0.00 0.00 0.00 92 1014.9
20260502043404 11 225 0.0 0.0 0.00 0.00 0.00 92 1014.9
20260502042903 11 226 0.0 0.0 0.00 0.00 0.00 92 1014.9
20260502042401 12 220 0.0 0.0 0.00 0.00 0.00 91 1014.9
20260502041858 11 224 0.0 0.0 0.00 0.00 0.00 91 1015.2
20260502041356 11 209 0.0 0.0 0.00 0.00 0.00 90 1015.2
20260502040853 11 171 0.0 0.0 0.00 0.00 0.00 90 1015.2
20260502040349 12 217 0.0 0.0 0.00 0.00 0.00 90 1015.2
20260502035846 12 228 0.0 0.0 0.00 0.00 0.00 90 1015.2
20260502035342 12 214 0.0 0.0 0.00 0.00 0.00 90 1015.2
20260502034840 12 178 0.0 0.0 0.00 0.00 0.00 89 1014.9
20260502034338 12 222 0.0 0.0 0.00 0.00 0.00 89 1015.2
20260502033836 12 166 0.0 0.0 0.00 0.00 0.00 88 1014.9
20260502033333 12 213 0.0 0.0 0.00 0.00 0.00 89 1015.2
20260502032830 12 191 0.0 0.0 0.00 0.00 0.00 87 1015.2
20260502032326 12 222 0.0 0.0 0.00 0.00 0.00 88 1014.9
20260502031824 11 173 0.0 0.0 0.00 0.00 0.00 88 1015.2
20260502031322 11 170 0.0 0.0 0.00 0.00 0.00 88 1015.2
20260502030820 12 181 0.0 0.0 0.00 0.00 0.00 87 1015.2
20260502030318 12 220 0.0 0.0 0.00 0.00 0.00 87 1015.2
20260502025815 12 223 0.0 0.0 0.00 0.00 0.00 87 1015.2
20260502025313 12 210 0.0 0.0 0.00 0.00 0.00 87 1015.2
20260502024810 12 179 0.0 0.0 0.00 0.00 0.00 86 1015.2
20260502024308 12 191 0.0 0.0 0.00 0.00 0.00 86 1014.9
20260502023806 12 215 0.0 0.0 0.00 0.00 0.00 87 1014.9
20260502023303 12 206 0.0 0.0 0.00 0.00 0.00 87 1014.9
20260502022801 12 186 0.0 0.0 0.00 0.00 0.00 86 1014.9
20260502022257 12 214 0.0 0.0 0.00 0.00 0.00 86 1014.9
20260502021754 12 215 0.0 0.0 0.00 0.00 0.00 86 1014.9
20260502021251 12 219 0.0 1.6 0.00 0.00 0.00 85 1014.9
20260502020748 12 175 0.0 0.0 0.00 0.00 0.00 85 1014.9
20260502020246 12 211 0.0 0.0 0.00 0.00 0.00 85 1015.2
20260502015743 12 183 0.0 0.0 0.00 0.00 0.00 85 1015.2
20260502015239 12 214 0.0 0.0 0.00 0.00 0.00 84 1015.2
20260502014737 12 194 0.0 0.0 0.00 0.00 0.00 83 1014.9
20260502014234 12 211 0.0 0.0 0.00 0.00 0.00 84 1015.2
20260502013730 12 219 0.0 0.0 0.00 0.00 0.00 84 1015.2
20260502013225 12 220 0.0 12.9 0.00 0.00 0.00 83 1014.9
20260502012723 12 213 0.0 0.0 0.00 0.00 0.00 83 1014.9
20260502012221 12 191 0.0 0.0 0.00 0.00 0.00 83 1014.9
20260502011718 12 162 0.0 4.8 0.00 0.00 0.00 83 1014.9
20260502011213 12 214 0.0 0.0 0.00 0.00 0.00 82 1014.9
20260502010711 12 170 0.0 0.0 0.00 0.00 0.00 82 1014.9
20260502010207 12 218 0.0 1.6 0.00 0.00 0.00 82 1014.9
20260502005704 12 201 0.0 0.0 0.00 0.00 0.00 81 1014.9
20260502005202 12 194 0.0 0.0 0.00 0.00 0.00 81 1014.9
20260502004658 13 194 0.0 0.0 0.00 0.00 0.00 81 1014.6
20260502004155 13 169 0.0 0.0 0.00 0.00 0.00 81 1014.2
20260502003653 13 222 0.0 0.0 0.00 0.00 0.00 80 1014.2
20260502003150 13 213 0.0 0.0 0.00 0.00 0.00 79 1014.2
20260502002645 13 156 0.0 0.0 0.00 0.00 0.00 78 1014.2
20260502002144 13 160 0.0 0.0 0.00 0.00 0.00 77 1014.2
20260502001641 13 195 0.0 0.0 0.00 0.00 0.00 77 1014.2
20260502001138 13 207 0.0 1.6 0.00 0.00 0.00 77 1014.2
20260502000636 13 209 0.0 0.0 0.00 0.00 0.00 76 1014.6
20260502000133 13 217 0.0 0.0 0.00 0.00 0.00 75 1014.2
20260501235629 13 211 6.4 14.5 0.00 0.00 0.00 74 1014.2
20260501235125 14 194 0.0 11.3 0.00 0.00 0.00 73 1014.2
20260501234621 14 195 3.2 4.8 0.00 0.00 0.00 72 1014.2
20260501234118 14 220 0.0 3.2 0.00 0.00 0.00 72 1014.2
20260501233616 15 223 6.4 9.7 0.00 0.00 0.00 72 1014.2
20260501233114 15 197 4.8 14.5 0.00 0.00 0.00 71 1014.2
20260501232609 15 167 8.0 14.5 0.00 0.00 0.00 71 1013.9
20260501232107 15 203 8.0 11.3 0.00 0.00 0.00 70 1013.9
20260501231604 16 217 11.3 16.1 0.00 0.00 0.00 70 1013.9
20260501231102 16 188 6.4 11.3 0.00 0.00 0.00 69 1013.9
20260501230601 16 201 8.0 14.5 0.00 0.00 0.00 69 1013.5
20260501230058 16 208 3.2 16.1 0.00 0.00 0.00 67 1013.9
20260501225555 16 214 14.5 20.9 0.00 0.00 0.00 66 1013.9
20260501225052 17 200 9.7 20.9 0.00 0.00 0.00 64 1013.9
20260501224549 17 223 8.0 17.7 0.00 0.00 0.00 62 1013.9
20260501224046 17 199 16.1 17.7 0.00 0.00 0.00 60 1013.9
20260501223543 18 203 12.9 14.5 0.00 0.00 0.00 59 1013.9
20260501223039 18 208 14.5 16.1 0.00 0.00 0.00 59 1013.9
20260501222535 18 199 11.3 20.9 0.00 0.00 0.00 59 1013.9
20260501222032 18 213 14.5 20.9 0.00 0.00 0.00 59 1013.9
20260501221529 18 218 12.9 20.9 0.00 0.00 0.00 57 1013.9
20260501221027 18 197 8.0 17.7 0.00 0.00 0.00 57 1013.9
20260501220524 18 186 11.3 25.7 0.00 0.00 0.00 57 1013.9
20260501220021 18 215 14.5 20.9 0.00 0.00 0.00 56 1013.9
20260501215517 19 215 8.0 16.1 0.00 0.00 0.00 56 1013.9
20260501215013 19 197 8.0 12.9 0.00 0.00 0.00 54 1014.2
20260501214508 18 226 1.6 8.0 0.00 0.00 0.00 54 1013.9
20260501214004 18 188 14.5 20.9 0.00 0.00 0.00 55 1014.2
20260501213501 19 207 4.8 14.5 0.00 0.00 0.00 53 1014.2
20260501212956 19 198 4.8 11.3 0.00 0.00 0.00 55 1013.9
20260501212453 19 211 11.3 14.5 0.00 0.00 0.00 54 1013.9
20260501211950 19 167 1.6 11.3 0.00 0.00 0.00 54 1013.9
20260501211447 18 226 11.3 12.9 0.00 0.00 0.00 55 1013.9
20260501210945 18 203 8.0 16.1 0.00 0.00 0.00 55 1014.2
20260501210441 18 198 8.0 11.3 0.00 0.00 0.00 54 1013.9
20260501205938 18 206 4.8 14.5 0.00 0.00 0.00 56 1014.2
20260501205434 18 203 6.4 11.3 0.00 0.00 0.00 53 1013.9
20260501204932 18 221 6.4 12.9 0.00 0.00 0.00 54 1014.2
20260501204428 18 218 8.0 11.3 0.00 0.00 0.00 53 1014.6
20260501203924 18 146 4.8 11.3 0.00 0.00 0.00 53 1014.2
20260501203421 18 207 8.0 11.3 0.00 0.00 0.00 54 1014.6
20260501202919 18 207 0.0 0.0 0.00 0.00 0.00 52 1014.2
20260501202415 18 177 4.8 11.3 0.00 0.00 0.00 52 1014.2
20260501201912 18 217 9.7 12.9 0.00 0.00 0.00 52 1014.2
20260501201409 18 198 1.6 11.3 0.00 0.00 0.00 51 1014.6
20260501200906 18 220 8.0 9.7 0.00 0.00 0.00 54 1014.6
20260501200403 18 194 4.8 12.9 0.00 0.00 0.00 52 1014.9
20260501195901 18 236 3.2 4.8 0.00 0.00 0.00 51 1014.6
20260501195356 18 226 3.2 9.7 0.00 0.00 0.00 51 1014.9
20260501194852 18 244 0.0 1.6 0.00 0.00 0.00 51 1014.9
20260501194348 18 217 1.6 11.3 0.00 0.00 0.00 51 1014.9
20260501193844 18 226 4.8 8.0 0.00 0.00 0.00 50 1014.9
20260501193343 18 215 4.8 14.5 0.00 0.00 0.00 52 1015.6
20260501192840 18 189 0.0 0.0 0.00 0.00 0.00 53 1015.2
20260501192338 18 145 4.8 8.0 0.00 0.00 0.00 52 1015.2
20260501191834 18 58 1.6 4.8 0.00 0.00 0.00 55 1015.6
20260501191332 18 326 0.0 1.6 0.00 0.00 0.00 53 1015.6
20260501190828 17 330 0.0 1.6 0.00 0.00 0.00 54 1015.6
20260501190324 18 188 4.8 4.8 0.00 0.00 0.00 50 1015.9
20260501185820 18 230 1.6 3.2 0.00 0.00 0.00 52 1015.9
20260501185316 17 254 0.0 3.2 0.00 0.00 0.00 52 1015.9
20260501184812 17 211 3.2 3.2 0.00 0.00 0.00 52 1015.9
20260501184308 17 13 4.8 9.7 0.00 0.00 0.00 53 1016.2
20260501183804 17 234 0.0 0.0 0.00 0.00 0.00 52 1016.2
20260501183301 17 167 0.0 0.0 0.00 0.00 0.00 55 1016.2
20260501182757 17 211 0.0 0.0 0.00 0.00 0.00 52 1016.2
20260501175652 16 220 0.0 11.3 0.00 0.00 0.00 54 1016.6
20260501175149 16 220 0.0 11.3 0.00 0.00 0.00 54 1016.6
20260501174645 16 135 0.0 0.0 0.00 0.00 0.00 53 1016.9
20260501174143 16 195 0.0 0.0 0.00 0.00 0.00 55 1016.9
20260501173640 16 237 0.0 0.0 0.00 0.00 0.00 52 1016.9
20260501173137 16 82 0.0 1.6 0.00 0.00 0.00 55 1016.6
20260501172633 15 179 9.7 11.3 0.00 0.00 0.00 56 1016.6
20260501172128 16 209 0.0 0.0 0.00 0.00 0.00 54 1017.3
20260501171624 16 232 0.0 0.0 0.00 0.00 0.00 53 1017.3
20260501171122 15 216 0.0 0.0 0.00 0.00 0.00 54 1017.3
20260501170619 15 206 3.2 4.8 0.00 0.00 0.00 49 1017.3
20260501170115 15 218 4.8 9.7 0.00 0.00 0.00 50 1017.3
20260501165613 15 215 8.0 11.3 0.00 0.00 0.00 56 1017.3
20260501165110 15 211 8.0 12.9 0.00 0.00 0.00 53 1017.3
20260501164608 15 223 0.0 9.7 0.00 0.00 0.00 56 1017.3
20260501164104 15 232 4.8 12.9 0.00 0.00 0.00 54 1017.3
20260501163601 15 216 3.2 9.7 0.00 0.00 0.00 57 1017.3
20260501163058 15 202 4.8 12.9 0.00 0.00 0.00 57 1017.6
20260501162554 15 213 8.0 9.7 0.00 0.00 0.00 58 1017.9
20260501162051 15 213 6.4 9.7 0.00 0.00 0.00 57 1017.6
20260501161548 15 207 4.8 8.0 0.00 0.00 0.00 57 1017.6
20260501161045 15 217 3.2 9.7 0.00 0.00 0.00 55 1017.9